This is the latest recevied weather packets stored in our database for station/object WP3OF-1. If no packets are shown the sender has not sent any weather packets the latest 1 day(s).
| Time | Temp. | Humidity | Pressure | Rain* | Wind** | Luminosity | Snow |
|---|---|---|---|---|---|---|---|
| 1778004859 | 29.44° C | 71% | 1017.8 hPa | 0 mm | 4.47 m/s, 129° | - | - |
| 1778004555 | 28.89° C | 70% | 1017.8 hPa | 0 mm | 5.36 m/s, 125° | - | - |
| 1778004251 | 28.89° C | 71% | 1017.7 hPa | 0 mm | 5.81 m/s, 120° | - | - |
| 1778003948 | 28.89° C | 71% | 1017.7 hPa | 0 mm | 4.92 m/s, 134° | - | - |
| 1778003644 | 30° C | 66% | 1017.8 hPa | 0 mm | 6.26 m/s, 117° | - | - |
| 1778003340 | 29.44° C | 68% | 1018.1 hPa | 0 mm | 5.36 m/s, 146° | - | - |
| 1778003038 | 28.89° C | 71% | 1017.9 hPa | 0 mm | 4.47 m/s, 129° | - | - |
| 1778002734 | 28.89° C | 74% | 1018.1 hPa | 0 mm | 4.92 m/s, 141° | - | - |
| 1778002430 | 28.89° C | 73% | 1018.2 hPa | 0 mm | 4.47 m/s, 123° | - | - |
| 1778002127 | 29.44° C | 71% | 1018.2 hPa | 0 mm | 6.71 m/s, 150° | - | - |
| 1778001825 | 29.44° C | 72% | 1018.1 hPa | 0 mm | 6.71 m/s, 125° | - | - |
| 1778001524 | 29.44° C | 73% | 1018.2 hPa | 0 mm | 4.02 m/s, 110° | - | - |
| 1778001222 | 29.44° C | 72% | 1018.3 hPa | 0 mm | 4.02 m/s, 143° | - | - |
| 1778000919 | 29.44° C | 71% | 1018.3 hPa | 0 mm | 4.92 m/s, 134° | - | - |
| 1778000615 | 29.44° C | 70% | 1018.3 hPa | 0 mm | 4.02 m/s, 146° | - | - |
| 1778000310 | 29.44° C | 70% | 1018.3 hPa | 0 mm | 5.81 m/s, 121° | - | - |
| 1778000006 | 29.44° C | 70% | 1018.4 hPa | 0 mm | 5.81 m/s, 162° | - | - |
| 1777999702 | 28.89° C | 73% | 1018.3 hPa | 0 mm | 6.71 m/s, 111° | - | - |
| 1777999399 | 29.44° C | 74% | 1018.5 hPa | 0 mm | 4.47 m/s, 125° | - | - |
| 1777999097 | 29.44° C | 73% | 1018.6 hPa | 0 mm | 5.36 m/s, 126° | - | - |
| 1777998796 | 28.89° C | 72% | 1018.4 hPa | 0 mm | 4.92 m/s, 115° | - | - |
| 1777998494 | 28.89° C | 72% | 1018.5 hPa | 0 mm | 6.26 m/s, 113° | - | - |
| 1777998189 | 28.89° C | 73% | 1018.5 hPa | 0 mm | 5.36 m/s, 123° | - | - |
| 1777997887 | 28.89° C | 71% | 1018.4 hPa | 0 mm | 4.92 m/s, 157° | - | - |
| 1777997584 | 28.89° C | 72% | 1018.5 hPa | 0 mm | 7.15 m/s, 114° | - | - |
* Rain latest hour (hover to see other rain measurements)
** Current wind speed in m/s (hover to see current wind gust speed)